Terminal Aerodrome Forecast
Issued by NWS Key West, FL

Home | Current Version | Previous Version | Text Only | Print | Product List | Glossary On
Versions: 1 2 3 4 5 6 7 8 9 10 11 12 13 14 15 16 17 18 19
000
FTUS42 KKEY 021731
TAFEYW
TAF
KEYW 021731Z 0218/0318 13012KT P6SM FEW020
     FM030200 12011KT P6SM FEW020 SCT080
     FM031200 16010KT P6SM FEW020 SCT080=

USA.gov is the U.S. government's official web portal to all federal, state and local government web resources and services.